Time,TemperatureF,DewpointF,PressureIn,WindDirection,WindDirectionDegrees,WindSpeedMPH,WindSpeedGustMPH,Humidity,HourlyPrecipIn,Conditions,Clouds,dailyrainin,SoftwareType,DateUTC
2013-10-16 00:02:00,49.5,44.2,29.97,NW,322,0.0,0.0,82,0.00,,,0.00,WeatherCatV1.21B27,2013-10-16 07:02:00,
2013-10-16 00:07:00,49.4,44.1,29.97,NW,322,0.0,0.0,82,0.00,,,0.00,WeatherCatV1.21B27,2013-10-16 07:07:00,
2013-10-16 00:12:00,49.2,43.9,29.97,NW,323,0.0,0.0,82,0.00,,,0.00,WeatherCatV1.21B27,2013-10-16 07:12:00,
2013-10-16 00:17:00,49.2,44.3,29.97,NW,323,0.0,0.0,83,0.00,,,0.00,WeatherCatV1.21B27,2013-10-16 07:17:00,
2013-10-16 00:22:00,49.1,44.2,29.97,NW,322,0.0,0.0,83,0.00,,,0.00,WeatherCatV1.21B27,2013-10-16 07:22:00,
2013-10-16 00:27:00,49.0,44.1,29.97,NW,323,0.0,0.0,83,0.00,,,0.00,WeatherCatV1.21B27,2013-10-16 07:27:00,
2013-10-16 00:32:00,48.8,43.9,29.98,NW,323,0.0,0.0,83,0.00,,,0.00,WeatherCatV1.21B27,2013-10-16 07:32:00,
2013-10-16 00:37:00,48.7,43.8,29.98,NW,322,0.0,0.0,83,0.00,,,0.00,WeatherCatV1.21B27,2013-10-16 07:37:00,
2013-10-16 00:42:00,48.6,43.7,29.98,NW,323,0.0,0.0,83,0.00,,,0.00,WeatherCatV1.21B27,2013-10-16 07:42:00,
2013-10-16 00:47:00,48.6,44.0,29.98,NW,323,0.0,0.0,84,0.00,,,0.00,WeatherCatV1.21B27,2013-10-16 07:47:00,
2013-10-16 00:52:00,48.5,43.9,29.98,NW,323,0.0,0.0,84,0.00,,,0.00,WeatherCatV1.21B27,2013-10-16 07:52:00,
2013-10-16 00:57:00,48.5,43.9,29.98,NW,323,0.0,0.0,84,0.00,,,0.00,WeatherCatV1.21B27,2013-10-16 07:57:00,
2013-10-16 01:02:00,48.5,43.9,29.98,NW,322,0.0,0.0,84,0.00,,,0.00,WeatherCatV1.21B27,2013-10-16 08:02:00,
2013-10-16 01:07:00,48.5,43.9,29.98,NW,323,0.0,0.0,84,0.00,,,0.00,WeatherCatV1.21B27,2013-10-16 08:07:00,
2013-10-16 01:12:00,48.4,43.8,29.98,NW,322,0.0,0.0,84,0.00,,,0.00,WeatherCatV1.21B27,2013-10-16 08:12:00,
2013-10-16 01:17:00,48.3,43.7,29.99,NW,322,0.0,0.0,84,0.00,,,0.00,WeatherCatV1.21B27,2013-10-16 08:17:00,
2013-10-16 01:22:00,48.2,43.6,29.99,NW,322,0.0,0.0,84,0.00,,,0.00,WeatherCatV1.21B27,2013-10-16 08:22:00,
2013-10-16 01:27:00,48.1,43.5,29.99,NW,323,0.0,0.0,84,0.00,,,0.00,WeatherCatV1.21B27,2013-10-16 08:27:00,
2013-10-16 01:32:00,48.1,43.8,29.99,NW,322,0.0,0.0,85,0.00,,,0.00,WeatherCatV1.21B27,2013-10-16 08:32:00,
2013-10-16 01:37:00,48.0,43.7,29.99,NW,323,0.0,0.0,85,0.00,,,0.00,WeatherCatV1.21B27,2013-10-16 08:37:00,
2013-10-16 01:42:00,48.0,43.7,29.99,NW,322,0.0,0.0,85,0.00,,,0.00,WeatherCatV1.21B27,2013-10-16 08:42:00,
2013-10-16 01:47:00,47.9,43.6,29.99,NW,323,0.0,0.0,85,0.00,,,0.00,WeatherCatV1.21B27,2013-10-16 08:47:00,
2013-10-16 01:52:00,47.9,43.6,29.99,NW,323,0.0,0.0,85,0.00,,,0.00,WeatherCatV1.21B27,2013-10-16 08:52:00,
2013-10-16 01:57:00,47.8,43.5,30.00,NW,322,0.0,0.0,85,0.00,,,0.00,WeatherCatV1.21B27,2013-10-16 08:57:00,
2013-10-16 02:02:00,47.7,43.4,30.00,NW,323,0.0,0.0,85,0.00,,,0.00,WeatherCatV1.21B27,2013-10-16 09:02:00,
2013-10-16 02:07:00,47.7,43.4,30.00,NW,323,0.0,0.0,85,0.00,,,0.00,WeatherCatV1.21B27,2013-10-16 09:07:00,
2013-10-16 02:12:00,47.7,43.4,30.00,NW,323,0.0,0.0,85,0.00,,,0.00,WeatherCatV1.21B27,2013-10-16 09:12:00,
2013-10-16 02:17:00,47.6,43.3,30.00,NW,323,0.0,0.0,85,0.00,,,0.00,WeatherCatV1.21B27,2013-10-16 09:17:00,
2013-10-16 02:22:00,47.6,43.3,30.00,NW,322,0.0,0.0,85,0.00,,,0.00,WeatherCatV1.21B27,2013-10-16 09:22:00,
2013-10-16 02:27:00,47.6,43.3,30.00,NW,323,0.0,0.0,85,0.00,,,0.00,WeatherCatV1.21B27,2013-10-16 09:27:00,
2013-10-16 02:32:00,47.6,43.3,30.00,NW,323,0.0,0.0,85,0.00,,,0.00,WeatherCatV1.21B27,2013-10-16 09:32:00,
2013-10-16 02:37:00,47.4,43.1,30.00,NW,322,0.0,0.0,85,0.00,,,0.00,WeatherCatV1.21B27,2013-10-16 09:37:00,
2013-10-16 02:42:00,47.3,43.0,30.00,NW,323,0.0,0.0,85,0.00,,,0.00,WeatherCatV1.21B27,2013-10-16 09:42:00,
2013-10-16 02:47:00,47.2,43.2,30.00,NW,323,0.0,0.0,86,0.00,,,0.00,WeatherCatV1.21B27,2013-10-16 09:47:00,
2013-10-16 02:52:00,47.0,42.7,30.00,NW,323,0.0,0.0,85,0.00,,,0.00,WeatherCatV1.21B27,2013-10-16 09:52:00,
2013-10-16 02:57:00,46.9,42.6,30.00,NW,322,0.0,0.0,85,0.00,,,0.00,WeatherCatV1.21B27,2013-10-16 09:57:00,
2013-10-16 03:02:00,46.7,42.7,30.00,NW,323,0.0,0.0,86,0.00,,,0.00,WeatherCatV1.21B27,2013-10-16 10:02:00,
2013-10-16 03:07:00,46.5,42.5,30.00,NW,323,0.0,0.0,86,0.00,,,0.00,WeatherCatV1.21B27,2013-10-16 10:07:00,
2013-10-16 03:12:00,46.4,42.4,30.00,NW,323,0.0,0.0,86,0.00,,,0.00,WeatherCatV1.21B27,2013-10-16 10:12:00,
2013-10-16 03:17:00,46.2,42.2,30.00,NW,323,0.0,0.0,86,0.00,,,0.00,WeatherCatV1.21B27,2013-10-16 10:17:00,
2013-10-16 03:22:00,46.0,41.8,30.00,NW,323,0.0,0.0,85,0.00,,,0.00,WeatherCatV1.21B27,2013-10-16 10:22:00,
2013-10-16 03:27:00,45.7,41.5,30.00,NW,323,0.0,0.0,85,0.00,,,0.00,WeatherCatV1.21B27,2013-10-16 10:27:00,
2013-10-16 03:32:00,45.4,41.2,30.00,NW,322,0.0,0.0,85,0.00,,,0.00,WeatherCatV1.21B27,2013-10-16 10:32:00,
2013-10-16 03:37:00,45.3,41.4,30.00,NW,323,0.0,0.0,86,0.00,,,0.00,WeatherCatV1.21B27,2013-10-16 10:37:00,
2013-10-16 03:42:00,45.1,41.2,30.00,NW,323,0.0,0.0,86,0.00,,,0.00,WeatherCatV1.21B27,2013-10-16 10:42:00,
2013-10-16 03:47:00,45.0,41.4,30.00,NW,323,0.0,0.0,87,0.00,,,0.00,WeatherCatV1.21B27,2013-10-16 10:47:00,
2013-10-16 03:52:00,45.0,41.4,30.00,NW,322,0.0,0.0,87,0.00,,,0.00,WeatherCatV1.21B27,2013-10-16 10:52:00,
2013-10-16 03:57:00,44.9,41.6,30.00,NW,323,0.0,0.0,88,0.00,,,0.00,WeatherCatV1.21B27,2013-10-16 10:57:00,
2013-10-16 04:02:00,44.8,41.5,30.01,NW,323,0.0,0.0,88,0.00,,,0.00,WeatherCatV1.21B27,2013-10-16 11:02:00,
2013-10-16 04:07:00,44.6,41.3,30.01,NW,322,0.0,0.0,88,0.00,,,0.00,WeatherCatV1.21B27,2013-10-16 11:07:00,
2013-10-16 04:12:00,44.5,41.5,30.01,NW,323,0.0,0.0,89,0.00,,,0.00,WeatherCatV1.21B27,2013-10-16 11:12:00,
2013-10-16 04:17:00,44.4,41.4,30.01,NW,323,0.0,0.0,89,0.00,,,0.00,WeatherCatV1.21B27,2013-10-16 11:17:00,
2013-10-16 04:22:00,44.3,41.3,30.01,NW,323,0.0,0.0,89,0.00,,,0.00,WeatherCatV1.21B27,2013-10-16 11:22:00,
2013-10-16 04:27:00,44.2,41.2,30.01,NW,322,0.0,0.0,89,0.00,,,0.00,WeatherCatV1.21B27,2013-10-16 11:27:00,
2013-10-16 04:32:00,44.2,41.5,30.01,NW,323,0.0,0.0,90,0.00,,,0.00,WeatherCatV1.21B27,2013-10-16 11:32:00,
2013-10-16 04:37:00,44.0,41.3,30.01,NW,323,0.0,0.0,90,0.00,,,0.00,WeatherCatV1.21B27,2013-10-16 11:37:00,
2013-10-16 04:42:00,43.9,41.2,30.01,NW,322,0.0,0.0,90,0.00,,,0.00,WeatherCatV1.21B27,2013-10-16 11:42:00,
2013-10-16 04:47:00,43.8,41.1,30.02,NW,323,0.0,0.0,90,0.00,,,0.00,WeatherCatV1.21B27,2013-10-16 11:47:00,
2013-10-16 04:52:00,43.8,41.1,30.02,NW,323,0.0,0.0,90,0.00,,,0.00,WeatherCatV1.21B27,2013-10-16 11:52:00,
2013-10-16 04:57:00,43.7,41.0,30.02,NW,323,0.0,0.0,90,0.00,,,0.00,WeatherCatV1.21B27,2013-10-16 11:57:00,
2013-10-16 05:04:00,43.5,40.8,30.02,NW,322,0.0,0.0,90,0.00,,,0.00,WeatherCatV1.21B27,2013-10-16 12:04:00,
2013-10-16 05:09:00,43.3,40.6,30.02,NW,322,0.0,0.0,90,0.00,,,0.00,WeatherCatV1.21B27,2013-10-16 12:09:00,
2013-10-16 05:14:00,43.2,40.5,30.02,NW,323,0.0,0.0,90,0.00,,,0.00,WeatherCatV1.21B27,2013-10-16 12:14:00,
2013-10-16 05:19:00,43.1,40.4,30.02,NW,322,0.0,0.0,90,0.00,,,0.00,WeatherCatV1.21B27,2013-10-16 12:19:00,
2013-10-16 05:24:00,43.0,40.3,30.02,NW,323,0.0,0.0,90,0.00,,,0.00,WeatherCatV1.21B27,2013-10-16 12:24:00,
2013-10-16 05:29:00,42.9,40.2,30.02,NW,323,0.0,0.0,90,0.00,,,0.00,WeatherCatV1.21B27,2013-10-16 12:29:00,
2013-10-16 05:34:00,42.8,40.1,30.02,NW,323,0.0,0.0,90,0.00,,,0.00,WeatherCatV1.21B27,2013-10-16 12:34:00,
2013-10-16 05:39:00,42.6,39.9,30.02,NW,322,0.0,0.0,90,0.00,,,0.00,WeatherCatV1.21B27,2013-10-16 12:39:00,
2013-10-16 05:44:00,42.5,39.8,30.02,NW,322,0.0,0.0,90,0.00,,,0.00,WeatherCatV1.21B27,2013-10-16 12:44:00,
2013-10-16 05:49:00,42.4,39.7,30.03,NW,322,0.0,0.0,90,0.00,,,0.00,WeatherCatV1.21B27,2013-10-16 12:49:00,
2013-10-16 05:54:00,42.3,39.9,30.03,NW,322,0.0,0.0,91,0.00,,,0.00,WeatherCatV1.21B27,2013-10-16 12:54:00,
2013-10-16 05:59:00,42.4,40.0,30.03,NW,322,0.0,0.0,91,0.00,,,0.00,WeatherCatV1.21B27,2013-10-16 12:59:00,
2013-10-16 06:04:00,42.3,39.9,30.03,NW,323,0.0,0.0,91,0.00,,,0.00,WeatherCatV1.21B27,2013-10-16 13:04:00,
2013-10-16 06:09:00,42.3,39.9,30.03,NW,323,0.0,0.0,91,0.00,,,0.00,WeatherCatV1.21B27,2013-10-16 13:09:00,
2013-10-16 06:14:00,42.3,39.9,30.03,NW,322,0.0,0.0,91,0.00,,,0.00,WeatherCatV1.21B27,2013-10-16 13:14:00,
2013-10-16 06:19:00,42.2,39.8,30.04,NW,323,0.0,0.0,91,0.00,,,0.00,WeatherCatV1.21B27,2013-10-16 13:19:00,
2013-10-16 06:24:00,42.1,39.7,30.04,NW,323,0.0,0.0,91,0.00,,,0.00,WeatherCatV1.21B27,2013-10-16 13:24:00,
2013-10-16 06:29:00,42.1,39.7,30.04,NW,322,0.0,0.0,91,0.00,,,0.00,WeatherCatV1.21B27,2013-10-16 13:29:00,
2013-10-16 06:34:00,42.0,39.8,30.05,NW,323,0.0,0.0,92,0.00,,,0.00,WeatherCatV1.21B27,2013-10-16 13:34:00,
2013-10-16 06:39:00,42.0,39.8,30.05,NW,323,0.0,0.0,92,0.00,,,0.00,WeatherCatV1.21B27,2013-10-16 13:39:00,
2013-10-16 06:44:00,42.0,39.8,30.05,NW,322,0.0,0.0,92,0.00,,,0.00,WeatherCatV1.21B27,2013-10-16 13:44:00,
2013-10-16 06:49:00,42.0,39.8,30.05,NW,323,0.0,0.0,92,0.00,,,0.00,WeatherCatV1.21B27,2013-10-16 13:49:00,
2013-10-16 06:54:00,42.1,40.0,30.05,NW,323,0.0,0.0,92,0.00,,,0.00,WeatherCatV1.21B27,2013-10-16 13:54:00,
2013-10-16 06:59:00,42.1,40.0,30.05,NW,323,0.0,0.0,92,0.00,,,0.00,WeatherCatV1.21B27,2013-10-16 13:59:00,
2013-10-16 07:04:00,42.1,40.0,30.05,NW,323,0.0,0.0,92,0.00,,,0.00,WeatherCatV1.21B27,2013-10-16 14:04:00,
2013-10-16 07:09:00,42.0,39.8,30.05,NW,323,0.0,0.0,92,0.00,,,0.00,WeatherCatV1.21B27,2013-10-16 14:09:00,
2013-10-16 07:14:00,42.0,39.8,30.06,NW,323,0.0,0.0,92,0.00,,,0.00,WeatherCatV1.21B27,2013-10-16 14:14:00,
2013-10-16 07:19:00,42.0,40.1,30.06,NW,322,0.0,0.0,93,0.00,,,0.00,WeatherCatV1.21B27,2013-10-16 14:19:00,
2013-10-16 07:24:00,41.9,40.0,30.06,NW,323,0.0,0.0,93,0.00,,,0.00,WeatherCatV1.21B27,2013-10-16 14:24:00,
2013-10-16 07:29:00,41.9,40.0,30.06,NW,323,0.0,0.0,93,0.00,,,0.00,WeatherCatV1.21B27,2013-10-16 14:29:00,
2013-10-16 07:34:00,41.9,40.0,30.06,NW,322,0.0,0.0,93,0.00,,,0.00,WeatherCatV1.21B27,2013-10-16 14:34:00,
2013-10-16 07:39:00,41.9,40.0,30.06,NW,322,0.0,0.0,93,0.00,,,0.00,WeatherCatV1.21B27,2013-10-16 14:39:00,
2013-10-16 07:44:00,41.9,40.0,30.06,NW,323,0.0,0.0,93,0.00,,,0.00,WeatherCatV1.21B27,2013-10-16 14:44:00,
2013-10-16 07:49:00,42.0,40.1,30.07,NW,323,0.0,0.0,93,0.00,,,0.00,WeatherCatV1.21B27,2013-10-16 14:49:00,
2013-10-16 07:54:00,42.3,40.4,30.07,NW,323,0.0,0.0,93,0.00,,,0.00,WeatherCatV1.21B27,2013-10-16 14:54:00,
2013-10-16 07:59:00,42.9,41.3,30.07,NW,322,0.0,0.0,94,0.00,,,0.00,WeatherCatV1.21B27,2013-10-16 14:59:00,
2013-10-16 08:04:00,43.4,41.8,30.07,NW,323,0.0,0.0,94,0.00,,,0.00,WeatherCatV1.21B27,2013-10-16 15:04:00,
2013-10-16 08:09:00,44.0,42.7,30.07,NW,322,0.0,0.0,95,0.00,,,0.00,WeatherCatV1.21B27,2013-10-16 15:09:00,
2013-10-16 08:14:00,45.1,43.8,30.07,NW,322,0.0,0.0,95,0.00,,,0.00,WeatherCatV1.21B27,2013-10-16 15:14:00,
2013-10-16 08:19:00,46.1,44.8,30.07,NW,323,0.0,0.0,95,0.00,,,0.00,WeatherCatV1.21B27,2013-10-16 15:19:00,
2013-10-16 08:24:00,46.8,45.4,30.08,NW,323,0.0,0.0,95,0.00,,,0.00,WeatherCatV1.21B27,2013-10-16 15:24:00,
2013-10-16 08:29:00,47.6,46.2,30.07,NW,323,0.0,0.0,95,0.00,,,0.00,WeatherCatV1.21B27,2013-10-16 15:29:00,
2013-10-16 08:34:00,48.5,47.1,30.08,NW,322,0.0,0.0,95,0.00,,,0.00,WeatherCatV1.21B27,2013-10-16 15:34:00,
2013-10-16 08:39:00,49.3,47.9,30.08,NW,322,0.0,0.0,95,0.00,,,0.00,WeatherCatV1.21B27,2013-10-16 15:39:00,
2013-10-16 08:44:00,50.1,48.4,30.08,NW,323,0.0,1.0,94,0.00,,,0.00,WeatherCatV1.21B27,2013-10-16 15:44:00,
2013-10-16 08:49:00,51.0,49.0,30.08,NW,323,0.0,0.0,93,0.00,,,0.00,WeatherCatV1.21B27,2013-10-16 15:49:00,
2013-10-16 08:54:00,51.8,49.0,30.08,NW,323,0.0,1.0,90,0.00,,,0.00,WeatherCatV1.21B27,2013-10-16 15:54:00,
2013-10-16 08:59:00,52.7,48.6,30.08,NW,322,0.0,0.0,86,0.00,,,0.00,WeatherCatV1.21B27,2013-10-16 15:59:00,
2013-10-16 09:04:00,53.6,48.2,30.08,NW,323,0.0,0.0,82,0.00,,,0.00,WeatherCatV1.21B27,2013-10-16 16:04:00,
2013-10-16 09:09:00,54.5,48.5,30.08,NW,323,0.0,0.0,80,0.00,,,0.00,WeatherCatV1.21B27,2013-10-16 16:09:00,
2013-10-16 09:14:00,55.3,48.9,30.08,NW,322,0.0,0.0,79,0.00,,,0.00,WeatherCatV1.21B27,2013-10-16 16:14:00,
2013-10-16 09:19:00,56.2,48.7,30.08,NW,325,0.0,1.0,76,0.00,,,0.00,WeatherCatV1.21B27,2013-10-16 16:19:00,
2013-10-16 09:24:00,56.9,48.7,30.08,NW,326,0.0,1.0,74,0.00,,,0.00,WeatherCatV1.21B27,2013-10-16 16:24:00,
2013-10-16 09:29:00,57.7,49.1,30.08,NW,326,0.0,1.0,73,0.00,,,0.00,WeatherCatV1.21B27,2013-10-16 16:29:00,
2013-10-16 09:34:00,58.6,49.6,30.08,NW,326,0.0,0.0,72,0.00,,,0.00,WeatherCatV1.21B27,2013-10-16 16:34:00,
2013-10-16 09:39:00,59.4,50.7,30.08,NW,326,0.0,0.0,73,0.00,,,0.00,WeatherCatV1.21B27,2013-10-16 16:39:00,
2013-10-16 09:44:00,60.2,51.1,30.08,NW,326,0.0,0.0,72,0.00,,,0.00,WeatherCatV1.21B27,2013-10-16 16:44:00,
2013-10-16 09:49:00,61.2,50.9,30.08,NW,326,0.0,1.0,69,0.00,,,0.00,WeatherCatV1.21B27,2013-10-16 16:49:00,
2013-10-16 09:54:00,62.0,51.3,30.08,NW,326,0.0,0.0,68,0.00,,,0.00,WeatherCatV1.21B27,2013-10-16 16:54:00,
2013-10-16 09:59:00,63.0,50.6,30.08,NW,326,0.0,0.0,64,0.00,,,0.00,WeatherCatV1.21B27,2013-10-16 16:59:00,
2013-10-16 10:04:00,63.8,51.0,30.08,NNW,331,0.0,1.0,63,0.00,,,0.00,WeatherCatV1.21B27,2013-10-16 17:04:00,
2013-10-16 10:09:00,64.4,50.7,30.08,NNW,342,0.0,2.0,61,0.00,,,0.00,WeatherCatV1.21B27,2013-10-16 17:09:00,
2013-10-16 10:14:00,65.0,49.9,30.08,North,355,0.0,1.0,58,0.00,,,0.00,WeatherCatV1.21B27,2013-10-16 17:14:00,
2013-10-16 10:19:00,65.5,51.7,30.08,North,355,0.0,1.0,61,0.00,,,0.00,WeatherCatV1.21B27,2013-10-16 17:19:00,
2013-10-16 10:24:00,66.1,50.4,30.08,North,355,0.0,1.0,57,0.00,,,0.00,WeatherCatV1.21B27,2013-10-16 17:24:00,
2013-10-16 10:29:00,66.8,50.6,30.08,North,5,0.0,3.0,56,0.00,,,0.00,WeatherCatV1.21B27,2013-10-16 17:29:00,
2013-10-16 10:34:00,67.4,51.2,30.08,North,10,0.0,1.0,56,0.00,,,0.00,WeatherCatV1.21B27,2013-10-16 17:34:00,
2013-10-16 10:39:00,68.1,51.3,30.08,NNE,17,0.0,1.0,55,0.00,,,0.00,WeatherCatV1.21B27,2013-10-16 17:39:00,
2013-10-16 10:44:00,68.7,51.4,30.08,NNE,18,0.0,1.0,54,0.00,,,0.00,WeatherCatV1.21B27,2013-10-16 17:44:00,
2013-10-16 10:49:00,69.4,51.0,30.08,NNE,18,0.0,0.0,52,0.00,,,0.00,WeatherCatV1.21B27,2013-10-16 17:49:00,
2013-10-16 10:54:00,70.0,51.5,30.08,NNE,18,0.0,1.0,52,0.00,,,0.00,WeatherCatV1.21B27,2013-10-16 17:54:00,
2013-10-16 10:59:00,70.6,51.6,30.08,NNE,18,0.0,0.0,51,0.00,,,0.00,WeatherCatV1.21B27,2013-10-16 17:59:00,
2013-10-16 11:04:00,71.0,51.4,30.08,NNE,19,0.0,0.0,50,0.00,,,0.00,WeatherCatV1.21B27,2013-10-16 18:04:00,
2013-10-16 11:09:00,71.5,50.8,30.08,NNE,22,0.0,1.0,48,0.00,,,0.00,WeatherCatV1.21B27,2013-10-16 18:09:00,
2013-10-16 11:14:00,71.9,51.7,30.08,NNE,18,1.0,3.0,49,0.00,,,0.00,WeatherCatV1.21B27,2013-10-16 18:14:00,
2013-10-16 11:19:00,72.2,50.2,30.08,NNE,22,0.0,0.0,46,0.00,,,0.00,WeatherCatV1.21B27,2013-10-16 18:19:00,
2013-10-16 11:24:00,72.6,50.6,30.07,WNW,282,0.0,3.0,46,0.00,,,0.00,WeatherCatV1.21B27,2013-10-16 18:24:00,
2013-10-16 11:27:00,72.6,50.0,30.07,SSW,204,0.0,2.0,45,0.00,,,0.00,WeatherCatV1.21B27,2013-10-16 18:27:00,
2013-10-16 11:32:00,72.9,50.9,30.07,SSW,200,3.0,3.0,46,0.00,,,0.00,WeatherCatV1.21B27,2013-10-16 18:32:00,
2013-10-16 11:37:00,73.3,51.2,30.07,SSW,200,0.0,0.0,46,0.00,,,0.00,WeatherCatV1.21B27,2013-10-16 18:37:00,
2013-10-16 11:42:00,73.9,51.2,30.07,SSW,200,0.0,0.0,45,0.00,,,0.00,WeatherCatV1.21B27,2013-10-16 18:42:00,
2013-10-16 11:47:00,74.6,51.8,30.07,SSW,200,0.0,0.0,45,0.00,,,0.00,WeatherCatV1.21B27,2013-10-16 18:47:00,
2013-10-16 11:52:00,75.1,51.7,30.07,SW,214,3.0,3.0,44,0.00,,,0.00,WeatherCatV1.21B27,2013-10-16 18:52:00,
2013-10-16 11:57:00,75.5,51.4,30.06,SW,214,1.0,1.0,43,0.00,,,0.00,WeatherCatV1.21B27,2013-10-16 18:57:00,
2013-10-16 12:02:00,75.8,51.0,30.06,SSW,208,1.0,2.0,42,0.00,,,0.00,WeatherCatV1.21B27,2013-10-16 19:02:00,
2013-10-16 12:07:00,76.1,50.0,30.06,South,190,0.0,4.0,40,0.00,,,0.00,WeatherCatV1.21B27,2013-10-16 19:07:00,
2013-10-16 12:12:00,76.6,49.8,30.06,South,190,1.0,4.0,39,0.00,,,0.00,WeatherCatV1.21B27,2013-10-16 19:12:00,
2013-10-16 12:17:00,77.2,50.3,30.06,South,190,0.0,1.0,39,0.00,,,0.00,WeatherCatV1.21B27,2013-10-16 19:17:00,
2013-10-16 12:22:00,77.7,50.8,30.06,SSW,196,2.0,2.0,39,0.00,,,0.00,WeatherCatV1.21B27,2013-10-16 19:22:00,
2013-10-16 12:27:00,78.0,50.3,30.05,SSW,195,0.0,1.0,38,0.00,,,0.00,WeatherCatV1.21B27,2013-10-16 19:27:00,
2013-10-16 12:32:00,78.2,49.0,30.05,SSW,195,0.0,3.0,36,0.00,,,0.00,WeatherCatV1.21B27,2013-10-16 19:32:00,
2013-10-16 12:37:00,78.6,51.5,30.05,SSW,195,0.0,1.0,39,0.00,,,0.00,WeatherCatV1.21B27,2013-10-16 19:37:00,
2013-10-16 12:42:00,78.8,50.3,30.05,SSW,196,1.0,2.0,37,0.00,,,0.00,WeatherCatV1.21B27,2013-10-16 19:42:00,
2013-10-16 12:47:00,79.0,51.2,30.05,SSW,196,0.0,0.0,38,0.00,,,0.00,WeatherCatV1.21B27,2013-10-16 19:47:00,
2013-10-16 12:52:00,79.1,48.3,30.04,SSW,196,0.0,0.0,34,0.00,,,0.00,WeatherCatV1.21B27,2013-10-16 19:52:00,
2013-10-16 12:57:00,79.4,49.3,30.04,SSW,196,0.0,2.0,35,0.00,,,0.00,WeatherCatV1.21B27,2013-10-16 19:57:00,
2013-10-16 13:02:00,79.8,48.9,30.03,SSW,194,0.0,1.0,34,0.00,,,0.00,WeatherCatV1.21B27,2013-10-16 20:02:00,
2013-10-16 13:07:00,80.2,48.5,30.03,SSW,194,0.0,2.0,33,0.00,,,0.00,WeatherCatV1.21B27,2013-10-16 20:07:00,
2013-10-16 13:12:00,80.5,47.9,30.03,SSW,194,0.0,2.0,32,0.00,,,0.00,WeatherCatV1.21B27,2013-10-16 20:12:00,
2013-10-16 13:17:00,80.8,47.3,30.03,SSW,196,0.0,3.0,31,0.00,,,0.00,WeatherCatV1.21B27,2013-10-16 20:17:00,
2013-10-16 13:22:00,80.9,46.5,30.03,SSW,196,0.0,0.0,30,0.00,,,0.00,WeatherCatV1.21B27,2013-10-16 20:22:00,
2013-10-16 13:27:00,80.9,44.7,30.02,SSW,198,1.0,1.0,28,0.00,,,0.00,WeatherCatV1.21B27,2013-10-16 20:27:00,
2013-10-16 13:32:00,81.0,45.7,30.02,SSW,200,0.0,3.0,29,0.00,,,0.00,WeatherCatV1.21B27,2013-10-16 20:32:00,
2013-10-16 13:37:00,81.2,46.8,30.02,SSW,207,0.0,2.0,30,0.00,,,0.00,WeatherCatV1.21B27,2013-10-16 20:37:00,
2013-10-16 13:42:00,81.5,46.2,30.02,SSW,207,2.0,2.0,29,0.00,,,0.00,WeatherCatV1.21B27,2013-10-16 20:42:00,
2013-10-16 13:47:00,81.7,45.4,30.02,SSW,207,0.0,0.0,28,0.00,,,0.00,WeatherCatV1.21B27,2013-10-16 20:47:00,
2013-10-16 13:52:00,81.8,44.5,30.01,SSW,202,2.0,3.0,27,0.00,,,0.00,WeatherCatV1.21B27,2013-10-16 20:52:00,
2013-10-16 13:57:00,81.9,43.6,30.01,SSW,201,0.0,2.0,26,0.00,,,0.00,WeatherCatV1.21B27,2013-10-16 20:57:00,
2013-10-16 14:02:00,82.0,45.7,30.01,SSW,201,0.0,0.0,28,0.00,,,0.00,WeatherCatV1.21B27,2013-10-16 21:02:00,
2013-10-16 14:07:00,82.1,43.8,30.01,SSW,201,1.0,2.0,26,0.00,,,0.00,WeatherCatV1.21B27,2013-10-16 21:07:00,
2013-10-16 14:12:00,82.2,41.8,30.01,SSW,200,2.0,4.0,24,0.00,,,0.00,WeatherCatV1.21B27,2013-10-16 21:12:00,
2013-10-16 14:17:00,82.1,41.7,30.00,SSW,200,0.0,1.0,24,0.00,,,0.00,WeatherCatV1.21B27,2013-10-16 21:17:00,
2013-10-16 14:22:00,82.2,41.8,30.00,SSW,199,0.0,1.0,24,0.00,,,0.00,WeatherCatV1.21B27,2013-10-16 21:22:00,
2013-10-16 14:27:00,82.3,41.9,30.00,SSW,200,0.0,1.0,24,0.00,,,0.00,WeatherCatV1.21B27,2013-10-16 21:27:00,
2013-10-16 14:32:00,82.5,43.1,30.00,SSW,200,0.0,0.0,25,0.00,,,0.00,WeatherCatV1.21B27,2013-10-16 21:32:00,
2013-10-16 14:37:00,82.9,42.4,30.00,SSW,200,1.0,4.0,24,0.00,,,0.00,WeatherCatV1.21B27,2013-10-16 21:37:00,
2013-10-16 14:42:00,83.1,41.4,30.00,SSW,200,0.0,3.0,23,0.00,,,0.00,WeatherCatV1.21B27,2013-10-16 21:42:00,
2013-10-16 14:47:00,83.1,42.5,29.99,SSW,200,0.0,0.0,24,0.00,,,0.00,WeatherCatV1.21B27,2013-10-16 21:47:00,
2013-10-16 14:52:00,83.3,40.5,29.99,SSW,200,0.0,0.0,22,0.00,,,0.00,WeatherCatV1.21B27,2013-10-16 21:52:00,
2013-10-16 14:57:00,83.6,40.7,29.99,SSW,202,0.0,4.0,22,0.00,,,0.00,WeatherCatV1.21B27,2013-10-16 21:57:00,
2013-10-16 15:02:00,83.8,43.1,29.99,SSW,202,0.0,3.0,24,0.00,,,0.00,WeatherCatV1.21B27,2013-10-16 22:02:00,
2013-10-16 15:07:00,83.7,38.3,29.99,SSW,204,0.0,1.0,20,0.00,,,0.00,WeatherCatV1.21B27,2013-10-16 22:07:00,
2013-10-16 15:12:00,83.6,40.7,29.99,SSW,204,0.0,0.0,22,0.00,,,0.00,WeatherCatV1.21B27,2013-10-16 22:12:00,
2013-10-16 15:17:00,83.6,39.5,29.99,SSW,203,0.0,0.0,21,0.00,,,0.00,WeatherCatV1.21B27,2013-10-16 22:17:00,
2013-10-16 15:22:00,83.8,40.9,29.99,SSW,204,0.0,1.0,22,0.00,,,0.00,WeatherCatV1.21B27,2013-10-16 22:22:00,
2013-10-16 15:27:00,84.2,41.2,29.99,SSW,204,0.0,0.0,22,0.00,,,0.00,WeatherCatV1.21B27,2013-10-16 22:27:00,
2013-10-16 15:32:00,84.4,38.9,29.99,SSW,203,0.0,0.0,20,0.00,,,0.00,WeatherCatV1.21B27,2013-10-16 22:32:00,
2013-10-16 15:37:00,84.4,41.4,29.99,SSW,203,0.0,0.0,22,0.00,,,0.00,WeatherCatV1.21B27,2013-10-16 22:37:00,
2013-10-16 15:42:00,84.3,44.6,29.98,SSW,204,0.0,0.0,25,0.00,,,0.00,WeatherCatV1.21B27,2013-10-16 22:42:00,
2013-10-16 15:47:00,84.1,41.1,29.98,SSW,203,0.0,0.0,22,0.00,,,0.00,WeatherCatV1.21B27,2013-10-16 22:47:00,
2013-10-16 15:52:00,84.0,39.8,29.98,SSW,204,0.0,0.0,21,0.00,,,0.00,WeatherCatV1.21B27,2013-10-16 22:52:00,
2013-10-16 15:57:00,84.1,43.4,29.98,SSW,204,0.0,0.0,24,0.00,,,0.00,WeatherCatV1.21B27,2013-10-16 22:57:00,
2013-10-16 16:02:00,84.3,41.3,29.98,SSW,203,0.0,1.0,22,0.00,,,0.00,WeatherCatV1.21B27,2013-10-16 23:02:00,
2013-10-16 16:07:00,84.2,40.0,29.98,SSW,203,0.0,0.0,21,0.00,,,0.00,WeatherCatV1.21B27,2013-10-16 23:07:00,
2013-10-16 16:12:00,84.1,41.1,29.98,SSW,204,0.0,1.0,22,0.00,,,0.00,WeatherCatV1.21B27,2013-10-16 23:12:00,
2013-10-16 16:17:00,84.2,43.5,29.98,SSW,204,0.0,0.0,24,0.00,,,0.00,WeatherCatV1.21B27,2013-10-16 23:17:00,
2013-10-16 16:22:00,84.3,38.8,29.98,SSW,203,0.0,0.0,20,0.00,,,0.00,WeatherCatV1.21B27,2013-10-16 23:22:00,
2013-10-16 16:27:00,84.4,41.4,29.98,SSW,204,0.0,0.0,22,0.00,,,0.00,WeatherCatV1.21B27,2013-10-16 23:27:00,
2013-10-16 16:32:00,84.4,40.2,29.97,SSW,204,0.0,0.0,21,0.00,,,0.00,WeatherCatV1.21B27,2013-10-16 23:32:00,
2013-10-16 16:37:00,84.4,38.9,29.97,SSW,203,0.0,0.0,20,0.00,,,0.00,WeatherCatV1.21B27,2013-10-16 23:37:00,
2013-10-16 16:42:00,84.5,37.7,29.97,SSW,204,0.0,0.0,19,0.00,,,0.00,WeatherCatV1.21B27,2013-10-16 23:42:00,
2013-10-16 16:47:00,84.5,39.0,29.97,SSW,204,0.0,0.0,20,0.00,,,0.00,WeatherCatV1.21B27,2013-10-16 23:47:00,
2013-10-16 16:52:00,84.5,39.0,29.97,SSW,204,0.0,0.0,20,0.00,,,0.00,WeatherCatV1.21B27,2013-10-16 23:52:00,
2013-10-16 16:57:00,84.3,37.5,29.97,SSW,203,0.0,0.0,19,0.00,,,0.00,WeatherCatV1.21B27,2013-10-16 23:57:00,
2013-10-16 17:02:00,84.2,38.8,29.97,SSW,204,0.0,0.0,20,0.00,,,0.00,WeatherCatV1.21B27,2013-10-17 00:02:00,
2013-10-16 17:07:00,83.9,39.8,29.97,SSW,204,0.0,1.0,21,0.00,,,0.00,WeatherCatV1.21B27,2013-10-17 00:07:00,
2013-10-16 17:12:00,83.6,40.7,29.97,SSW,204,0.0,0.0,22,0.00,,,0.00,WeatherCatV1.21B27,2013-10-17 00:12:00,
2013-10-16 17:17:00,83.2,40.4,29.97,SSW,203,0.0,1.0,22,0.00,,,0.00,WeatherCatV1.21B27,2013-10-17 00:17:00,
2013-10-16 17:22:00,82.8,42.3,29.97,SSW,204,0.0,0.0,24,0.00,,,0.00,WeatherCatV1.21B27,2013-10-17 00:22:00,
2013-10-16 17:27:00,82.4,40.9,29.97,SSW,204,0.0,0.0,23,0.00,,,0.00,WeatherCatV1.21B27,2013-10-17 00:27:00,
2013-10-16 17:32:00,82.0,41.6,29.97,SSW,203,0.0,0.0,24,0.00,,,0.00,WeatherCatV1.21B27,2013-10-17 00:32:00,
2013-10-16 17:37:00,81.5,43.3,29.97,SSW,204,0.0,0.0,26,0.00,,,0.00,WeatherCatV1.21B27,2013-10-17 00:37:00,
2013-10-16 17:42:00,80.9,44.7,29.97,SSW,204,0.0,0.0,28,0.00,,,0.00,WeatherCatV1.21B27,2013-10-17 00:42:00,
2013-10-16 17:47:00,79.9,44.8,29.97,SSW,203,0.0,0.0,29,0.00,,,0.00,WeatherCatV1.21B27,2013-10-17 00:47:00,
2013-10-16 17:52:00,78.9,43.0,29.97,SSW,203,0.0,0.0,28,0.00,,,0.00,WeatherCatV1.21B27,2013-10-17 00:52:00,
2013-10-16 17:57:00,77.8,46.4,29.97,SSW,204,0.0,0.0,33,0.00,,,0.00,WeatherCatV1.21B27,2013-10-17 00:57:00,
2013-10-16 18:02:00,76.4,48.9,29.97,SSW,204,0.0,0.0,38,0.00,,,0.00,WeatherCatV1.21B27,2013-10-17 01:02:00,
2013-10-16 18:07:00,74.9,49.6,29.97,SSW,203,0.0,0.0,41,0.00,,,0.00,WeatherCatV1.21B27,2013-10-17 01:07:00,
2013-10-16 18:12:00,73.6,49.1,29.97,SSW,203,0.0,0.0,42,0.00,,,0.00,WeatherCatV1.21B27,2013-10-17 01:12:00,
2013-10-16 18:17:00,72.2,48.5,29.97,SSW,204,0.0,0.0,43,0.00,,,0.00,WeatherCatV1.21B27,2013-10-17 01:17:00,
2013-10-16 18:22:00,71.0,48.0,29.97,SSW,204,0.0,0.0,44,0.00,,,0.00,WeatherCatV1.21B27,2013-10-17 01:22:00,
2013-10-16 18:27:00,70.0,47.7,29.97,SSW,204,0.0,0.0,45,0.00,,,0.00,WeatherCatV1.21B27,2013-10-17 01:27:00,
2013-10-16 18:32:00,69.2,47.5,29.97,SSW,204,0.0,0.0,46,0.00,,,0.00,WeatherCatV1.21B27,2013-10-17 01:32:00,
2013-10-16 18:37:00,68.2,47.2,29.97,SSW,204,0.0,0.0,47,0.00,,,0.00,WeatherCatV1.21B27,2013-10-17 01:37:00,
2013-10-16 18:42:00,67.2,47.9,29.97,SSW,204,0.0,0.0,50,0.00,,,0.00,WeatherCatV1.21B27,2013-10-17 01:42:00,
2013-10-16 18:47:00,66.0,47.3,29.97,SSW,203,0.0,0.0,51,0.00,,,0.00,WeatherCatV1.21B27,2013-10-17 01:47:00,
2013-10-16 18:52:00,65.0,46.4,29.97,SSW,204,0.0,0.0,51,0.00,,,0.00,WeatherCatV1.21B27,2013-10-17 01:52:00,
2013-10-16 18:57:00,64.3,47.3,29.97,SSW,204,0.0,0.0,54,0.00,,,0.00,WeatherCatV1.21B27,2013-10-17 01:57:00,
2013-10-16 19:02:00,63.6,47.1,29.97,SSW,204,0.0,0.0,55,0.00,,,0.00,WeatherCatV1.21B27,2013-10-17 02:02:00,
2013-10-16 19:07:00,63.2,46.8,29.97,SSW,203,0.0,0.0,55,0.00,,,0.00,WeatherCatV1.21B27,2013-10-17 02:07:00,
2013-10-16 19:12:00,62.8,46.4,29.97,SSW,204,0.0,0.0,55,0.00,,,0.00,WeatherCatV1.21B27,2013-10-17 02:12:00,
2013-10-16 19:17:00,62.0,46.1,29.97,SSW,203,0.0,0.0,56,0.00,,,0.00,WeatherCatV1.21B27,2013-10-17 02:17:00,
2013-10-16 19:22:00,61.4,46.9,29.97,SSW,203,0.0,0.0,59,0.00,,,0.00,WeatherCatV1.21B27,2013-10-17 02:22:00,
2013-10-16 19:27:00,60.7,46.3,29.97,SSW,203,0.0,0.0,59,0.00,,,0.00,WeatherCatV1.21B27,2013-10-17 02:27:00,
2013-10-16 19:32:00,60.2,46.7,29.97,SSW,204,0.0,0.0,61,0.00,,,0.00,WeatherCatV1.21B27,2013-10-17 02:32:00,
2013-10-16 19:37:00,59.7,46.7,29.97,SSW,204,0.0,0.0,62,0.00,,,0.00,WeatherCatV1.21B27,2013-10-17 02:37:00,
2013-10-16 19:42:00,59.3,47.5,29.97,SSW,204,0.0,0.0,65,0.00,,,0.00,WeatherCatV1.21B27,2013-10-17 02:42:00,
2013-10-16 19:47:00,58.8,47.9,29.97,SSW,204,0.0,0.0,67,0.00,,,0.00,WeatherCatV1.21B27,2013-10-17 02:47:00,
2013-10-16 19:52:00,58.5,47.2,29.97,SSW,204,0.0,0.0,66,0.00,,,0.00,WeatherCatV1.21B27,2013-10-17 02:52:00,
2013-10-16 19:57:00,58.4,47.1,29.97,SSW,203,0.0,0.0,66,0.00,,,0.00,WeatherCatV1.21B27,2013-10-17 02:57:00,
2013-10-16 20:02:00,58.1,46.4,29.97,SSW,204,0.0,0.0,65,0.00,,,0.00,WeatherCatV1.21B27,2013-10-17 03:02:00,
2013-10-16 20:07:00,57.6,46.3,29.97,SSW,204,0.0,0.0,66,0.00,,,0.00,WeatherCatV1.21B27,2013-10-17 03:07:00,
2013-10-16 20:12:00,57.1,46.6,29.97,SSW,203,0.0,0.0,68,0.00,,,0.00,WeatherCatV1.21B27,2013-10-17 03:12:00,
2013-10-16 20:17:00,56.7,45.9,29.97,SSW,203,0.0,0.0,67,0.00,,,0.00,WeatherCatV1.21B27,2013-10-17 03:17:00,
2013-10-16 20:22:00,56.4,46.0,29.97,SSW,204,0.0,0.0,68,0.00,,,0.00,WeatherCatV1.21B27,2013-10-17 03:22:00,
2013-10-16 20:27:00,56.2,45.8,29.97,SSW,204,0.0,0.0,68,0.00,,,0.00,WeatherCatV1.21B27,2013-10-17 03:27:00,
2013-10-16 20:32:00,55.9,45.5,29.97,SSW,203,0.0,0.0,68,0.00,,,0.00,WeatherCatV1.21B27,2013-10-17 03:32:00,
2013-10-16 20:37:00,55.5,45.5,29.97,SSW,203,0.0,0.0,69,0.00,,,0.00,WeatherCatV1.21B27,2013-10-17 03:37:00,
2013-10-16 20:42:00,55.1,45.5,29.98,SSW,204,0.0,0.0,70,0.00,,,0.00,WeatherCatV1.21B27,2013-10-17 03:42:00,
2013-10-16 20:47:00,54.8,45.2,29.98,SSW,204,0.0,0.0,70,0.00,,,0.00,WeatherCatV1.21B27,2013-10-17 03:47:00,
2013-10-16 20:52:00,54.4,44.8,29.98,SSW,204,0.0,0.0,70,0.00,,,0.00,WeatherCatV1.21B27,2013-10-17 03:52:00,
2013-10-16 20:57:00,54.2,45.0,29.98,SSW,203,0.0,0.0,71,0.00,,,0.00,WeatherCatV1.21B27,2013-10-17 03:57:00,
2013-10-16 21:01:00,54.0,44.4,29.98,SSW,204,0.0,0.0,70,0.00,,,0.00,WeatherCatV1.21B27,2013-10-17 04:01:00,
2013-10-16 21:06:00,53.7,44.5,29.98,SSW,204,0.0,0.0,71,0.00,,,0.00,WeatherCatV1.21B27,2013-10-17 04:06:00,
2013-10-16 21:11:00,53.5,44.3,29.98,SSW,204,0.0,0.0,71,0.00,,,0.00,WeatherCatV1.21B27,2013-10-17 04:11:00,
2013-10-16 21:16:00,53.3,44.9,29.98,SSW,203,0.0,0.0,73,0.00,,,0.00,WeatherCatV1.21B27,2013-10-17 04:16:00,
2013-10-16 21:21:00,53.2,44.8,29.98,SSW,204,0.0,0.0,73,0.00,,,0.00,WeatherCatV1.21B27,2013-10-17 04:21:00,
2013-10-16 21:26:00,53.0,44.6,29.98,SSW,204,0.0,0.0,73,0.00,,,0.00,WeatherCatV1.21B27,2013-10-17 04:26:00,
2013-10-16 21:31:00,52.8,44.7,29.99,SSW,204,0.0,0.0,74,0.00,,,0.00,WeatherCatV1.21B27,2013-10-17 04:31:00,
2013-10-16 21:36:00,52.6,44.9,29.99,SSW,204,0.0,0.0,75,0.00,,,0.00,WeatherCatV1.21B27,2013-10-17 04:36:00,
2013-10-16 21:41:00,52.6,45.6,29.99,SSW,203,0.0,0.0,77,0.00,,,0.00,WeatherCatV1.21B27,2013-10-17 04:41:00,
2013-10-16 21:46:00,52.4,45.7,29.99,SSW,204,0.0,0.0,78,0.00,,,0.00,WeatherCatV1.21B27,2013-10-17 04:46:00,
2013-10-16 21:51:00,52.3,45.3,29.99,SSW,203,0.0,0.0,77,0.00,,,0.00,WeatherCatV1.21B27,2013-10-17 04:51:00,
2013-10-16 21:56:00,52.1,45.5,29.99,SSW,203,0.0,0.0,78,0.00,,,0.00,WeatherCatV1.21B27,2013-10-17 04:56:00,
2013-10-16 22:01:00,51.9,45.3,29.99,SSW,204,0.0,0.0,78,0.00,,,0.00,WeatherCatV1.21B27,2013-10-17 05:01:00,
2013-10-16 22:06:00,51.7,45.1,29.99,SSW,204,0.0,0.0,78,0.00,,,0.00,WeatherCatV1.21B27,2013-10-17 05:06:00,
2013-10-16 22:11:00,51.5,44.5,29.99,SSW,204,0.0,0.0,77,0.00,,,0.00,WeatherCatV1.21B27,2013-10-17 05:11:00,
2013-10-16 22:16:00,51.4,44.4,29.99,SSW,203,0.0,0.0,77,0.00,,,0.00,WeatherCatV1.21B27,2013-10-17 05:16:00,
2013-10-16 22:21:00,51.2,44.2,29.99,SSW,204,0.0,0.0,77,0.00,,,0.00,WeatherCatV1.21B27,2013-10-17 05:21:00,
2013-10-16 22:26:00,50.9,44.3,29.99,SSW,203,0.0,0.0,78,0.00,,,0.00,WeatherCatV1.21B27,2013-10-17 05:26:00,
2013-10-16 22:31:00,50.9,45.0,29.99,SSW,203,0.0,0.0,80,0.00,,,0.00,WeatherCatV1.21B27,2013-10-17 05:31:00,
2013-10-16 22:36:00,50.9,45.3,29.99,SSW,204,0.0,0.0,81,0.00,,,0.00,WeatherCatV1.21B27,2013-10-17 05:36:00,
2013-10-16 22:41:00,50.8,45.5,30.00,SSW,204,0.0,1.0,82,0.00,,,0.00,WeatherCatV1.21B27,2013-10-17 05:41:00,
2013-10-16 22:46:00,50.9,46.2,30.00,SSW,204,0.0,0.0,84,0.00,,,0.00,WeatherCatV1.21B27,2013-10-17 05:46:00,
2013-10-16 22:51:00,50.9,46.5,30.00,SSW,204,0.0,5.0,85,0.00,,,0.00,WeatherCatV1.21B27,2013-10-17 05:51:00,
2013-10-16 22:56:00,50.9,46.2,30.00,SSW,204,0.0,0.0,84,0.00,,,0.00,WeatherCatV1.21B27,2013-10-17 05:56:00,
2013-10-16 23:01:00,50.8,46.1,30.00,SSW,204,0.0,0.0,84,0.00,,,0.00,WeatherCatV1.21B27,2013-10-17 06:01:00,
2013-10-16 23:06:00,50.7,46.0,30.00,SSW,204,0.0,0.0,84,0.00,,,0.00,WeatherCatV1.21B27,2013-10-17 06:06:00,
2013-10-16 23:11:00,50.6,45.9,30.00,SSW,204,0.0,0.0,84,0.00,,,0.00,WeatherCatV1.21B27,2013-10-17 06:11:00,
2013-10-16 23:16:00,50.5,45.8,30.00,SSW,204,0.0,0.0,84,0.00,,,0.00,WeatherCatV1.21B27,2013-10-17 06:16:00,
2013-10-16 23:21:00,50.4,45.8,30.00,SSW,203,0.0,0.0,84,0.00,,,0.00,WeatherCatV1.21B27,2013-10-17 06:21:00,
2013-10-16 23:26:00,50.3,45.7,30.00,SSW,203,0.0,0.0,84,0.00,,,0.00,WeatherCatV1.21B27,2013-10-17 06:26:00,
2013-10-16 23:31:00,50.1,45.1,30.00,SSW,204,0.0,0.0,83,0.00,,,0.00,WeatherCatV1.21B27,2013-10-17 06:31:00,
2013-10-16 23:36:00,50.0,45.0,30.00,SSW,203,0.0,0.0,83,0.00,,,0.00,WeatherCatV1.21B27,2013-10-17 06:36:00,
2013-10-16 23:41:00,49.9,44.9,30.00,SSW,204,0.0,0.0,83,0.00,,,0.00,WeatherCatV1.21B27,2013-10-17 06:41:00,
2013-10-16 23:46:00,49.6,44.7,30.00,SSW,203,0.0,0.0,83,0.00,,,0.00,WeatherCatV1.21B27,2013-10-17 06:46:00,
2013-10-16 23:51:00,49.4,44.5,30.00,SSW,204,0.0,0.0,83,0.00,,,0.00,WeatherCatV1.21B27,2013-10-17 06:51:00,
2013-10-16 23:56:00,49.3,44.4,30.00,SSW,204,0.0,0.0,83,0.00,,,0.00,WeatherCatV1.21B27,2013-10-17 06:56:00,